KAL2180 RJFK-RKSI

Flight info

Callsign KAL2180
Flight time 1h 10m
Altitude 38000
Route SASIK Y208 BEETL G339 PSN A582 BITUX Z53 BASEM G585 GUKDO GUKDO3C
Aircraft B738/M-SDE2E3FGHIRWXY/LB1

Departure

Time 2026-05-09 12:57
Airport Kagoshima Airport (RJFK)

Arrival

Time 2026-05-09 14:08
Airport Incheon International Airport (RKSI)
Time Latitude Longitude Altitude Speed Heading
2026-05-09 12:39 31.80387 130.71511 889 ft 0 kts 241°
2026-05-09 12:51 31.80389 130.71516 889 ft 4 kts 239°
2026-05-09 12:51 31.80402 130.71542 889 ft 4 kts 240°
2026-05-09 12:51 31.80415 130.71569 890 ft 2 kts 240°
2026-05-09 12:51 31.80428 130.71590 890 ft 4 kts 213°
2026-05-09 12:52 31.80452 130.71601 890 ft 3 kts 194°
2026-05-09 12:52 31.80454 130.71602 890 ft 1 kts 194°
2026-05-09 12:53 31.80422 130.71623 890 ft 14 kts 146°
2026-05-09 12:54 31.80318 130.71707 891 ft 19 kts 145°
2026-05-09 12:54 31.80208 130.71791 891 ft 18 kts 148°
2026-05-09 12:54 31.80101 130.71869 891 ft 18 kts 149°
2026-05-09 12:54 31.79980 130.71955 891 ft 23 kts 149°
2026-05-09 12:55 31.79828 130.72060 890 ft 27 kts 149°
2026-05-09 12:55 31.79668 130.72171 890 ft 26 kts 149°
2026-05-09 12:55 31.79515 130.72270 891 ft 24 kts 152°
2026-05-09 12:55 31.79372 130.72362 891 ft 23 kts 150°
2026-05-09 12:56 31.79237 130.72455 891 ft 22 kts 149°
2026-05-09 12:56 31.79118 130.72555 891 ft 19 kts 112°
2026-05-09 12:56 31.79156 130.72671 898 ft 15 kts 51°
2026-05-09 12:56 31.79240 130.72681 900 ft 13 kts 332°
2026-05-09 12:57 31.79434 130.72551 900 ft 72 kts 330°
2026-05-09 12:57 31.80118 130.72087 903 ft 154 kts 330°
2026-05-09 12:57 31.81167 130.71398 1547 ft 178 kts 330°
2026-05-09 12:57 31.82259 130.70792 2872 ft 169 kts 339°
2026-05-09 12:58 31.83459 130.70349 3576 ft 195 kts 342°
2026-05-09 12:58 31.84862 130.69874 3854 ft 224 kts 343°
2026-05-09 12:58 31.86431 130.69344 4266 ft 243 kts 343°
2026-05-09 12:58 31.88135 130.68763 4653 ft 264 kts 343°
2026-05-09 12:59 31.89929 130.68145 5466 ft 271 kts 343°
2026-05-09 12:59 31.91707 130.67527 6513 ft 270 kts 343°
2026-05-09 12:59 31.93518 130.66897 7436 ft 274 kts 343°
2026-05-09 12:59 31.95357 130.66255 8338 ft 278 kts 343°
2026-05-09 13:00 31.97208 130.65549 9247 ft 282 kts 341°
2026-05-09 13:00 31.99069 130.64780 10162 ft 285 kts 341°
2026-05-09 13:00 32.00998 130.63978 10604 ft 306 kts 341°
2026-05-09 13:00 32.03099 130.63112 10805 ft 333 kts 341°
2026-05-09 13:01 32.05351 130.62189 11186 ft 350 kts 341°
2026-05-09 13:01 32.07672 130.61241 11897 ft 355 kts 340°
2026-05-09 13:01 32.09987 130.60295 12710 ft 358 kts 340°
2026-05-09 13:01 32.12352 130.59330 13486 ft 362 kts 340°
2026-05-09 13:02 32.14743 130.58352 14215 ft 366 kts 340°
2026-05-09 13:02 32.17164 130.57362 14894 ft 370 kts 340°
2026-05-09 13:02 32.19608 130.56361 15585 ft 373 kts 339°
2026-05-09 13:02 32.22072 130.55352 16290 ft 376 kts 339°
2026-05-09 13:03 32.24558 130.54333 16959 ft 380 kts 339°
2026-05-09 13:03 32.27069 130.53303 17620 ft 384 kts 339°
2026-05-09 13:03 32.29572 130.52276 18283 ft 388 kts 339°
2026-05-09 13:03 32.32147 130.51272 18884 ft 392 kts 340°
2026-05-09 13:04 32.34771 130.50350 19465 ft 395 kts 341°
2026-05-09 13:04 32.37422 130.49456 20075 ft 397 kts 341°
2026-05-09 13:04 32.40090 130.48563 20664 ft 400 kts 340°
2026-05-09 13:04 32.42776 130.47658 21225 ft 403 kts 339°
2026-05-09 13:05 32.45478 130.46740 21763 ft 406 kts 339°
2026-05-09 13:05 32.48198 130.45808 22290 ft 408 kts 338°
2026-05-09 13:05 32.50936 130.44864 22817 ft 411 kts 338°
2026-05-09 13:05 32.53688 130.43912 23344 ft 413 kts 338°
2026-05-09 13:06 32.56421 130.42965 23806 ft 416 kts 337°
2026-05-09 13:06 32.59205 130.41999 24223 ft 418 kts 337°
2026-05-09 13:06 32.62009 130.41026 24648 ft 420 kts 337°
2026-05-09 13:06 32.64821 130.40049 25074 ft 422 kts 336°
2026-05-09 13:07 32.67648 130.39066 25495 ft 424 kts 336°
2026-05-09 13:07 32.70483 130.38080 25903 ft 426 kts 336°
2026-05-09 13:07 32.73334 130.37088 26295 ft 428 kts 336°
2026-05-09 13:07 32.76197 130.36090 26665 ft 430 kts 336°
2026-05-09 13:08 32.79080 130.35085 27011 ft 433 kts 336°
2026-05-09 13:08 32.81974 130.34076 27389 ft 435 kts 335°
2026-05-09 13:08 32.84842 130.33075 27773 ft 436 kts 335°
2026-05-09 13:08 32.87760 130.32057 28142 ft 438 kts 335°
2026-05-09 13:09 32.90688 130.31034 28490 ft 440 kts 335°
2026-05-09 13:09 32.93629 130.30005 28819 ft 442 kts 335°
2026-05-09 13:09 32.96582 130.28972 29154 ft 443 kts 335°
2026-05-09 13:09 32.99549 130.27932 29466 ft 445 kts 335°
2026-05-09 13:10 33.02527 130.26889 29778 ft 447 kts 335°
2026-05-09 13:10 33.05518 130.25841 30152 ft 448 kts 335°
2026-05-09 13:10 33.08459 130.24811 30580 ft 445 kts 334°
2026-05-09 13:10 33.11423 130.23774 31027 ft 442 kts 334°
2026-05-09 13:11 33.14367 130.22741 31404 ft 441 kts 334°
2026-05-09 13:11 33.17310 130.21705 31762 ft 441 kts 334°
2026-05-09 13:11 33.20255 130.20667 32111 ft 440 kts 334°
2026-05-09 13:11 33.23186 130.19635 32498 ft 439 kts 334°
2026-05-09 13:12 33.26108 130.18605 32876 ft 437 kts 334°
2026-05-09 13:12 33.29027 130.17575 33222 ft 436 kts 334°
2026-05-09 13:12 33.31895 130.16563 33570 ft 436 kts 334°
2026-05-09 13:12 33.34798 130.15539 33929 ft 435 kts 333°
2026-05-09 13:13 33.37692 130.14518 34281 ft 433 kts 333°
2026-05-09 13:13 33.40579 130.13499 34574 ft 432 kts 333°
2026-05-09 13:13 33.43460 130.12480 34863 ft 431 kts 333°
2026-05-09 13:13 33.46333 130.11463 35186 ft 430 kts 333°
2026-05-09 13:14 33.49197 130.10449 35512 ft 428 kts 333°
2026-05-09 13:14 33.52054 130.09437 35796 ft 428 kts 333°
2026-05-09 13:16 33.71850 130.02398 37646 ft 423 kts 332°
2026-05-09 13:16 33.74666 130.01395 37912 ft 422 kts 332°
2026-05-09 13:16 33.77439 130.00406 38151 ft 421 kts 332°
2026-05-09 13:17 33.83091 129.98383 38187 ft 425 kts 332°
2026-05-09 13:17 33.88742 129.96367 38181 ft 421 kts 332°
2026-05-09 13:18 33.94335 129.94368 38185 ft 418 kts 332°
2026-05-09 13:18 33.99853 129.92389 38183 ft 415 kts 332°
2026-05-09 13:19 34.05385 129.90401 38188 ft 414 kts 332°
2026-05-09 13:19 34.10913 129.88412 38186 ft 415 kts 332°
2026-05-09 13:20 34.16450 129.86417 38186 ft 416 kts 332°
2026-05-09 13:20 34.21979 129.84423 38188 ft 418 kts 332°
2026-05-09 13:21 34.27240 129.81760 38188 ft 403 kts 319°
2026-05-09 13:21 34.31661 129.77791 38179 ft 395 kts 312°
2026-05-09 13:22 34.35967 129.73624 38182 ft 398 kts 313°
2026-05-09 13:22 34.40283 129.69469 38182 ft 400 kts 313°
2026-05-09 13:23 34.51241 129.58964 38175 ft 403 kts 313°
2026-05-09 13:24 34.55635 129.54746 38182 ft 403 kts 313°
2026-05-09 13:24 34.59999 129.50549 38172 ft 403 kts 313°
2026-05-09 13:25 34.64392 129.46318 38180 ft 403 kts 313°
2026-05-09 13:26 34.70982 129.39959 38181 ft 403 kts 313°
2026-05-09 13:26 34.75375 129.35714 38175 ft 403 kts 313°
2026-05-09 13:27 34.79736 129.31494 38173 ft 403 kts 313°
2026-05-09 13:27 34.84131 129.27250 38173 ft 403 kts 313°
2026-05-09 13:28 34.88523 129.23005 38169 ft 403 kts 313°
2026-05-09 13:28 34.92912 129.18755 38168 ft 403 kts 313°
2026-05-09 13:29 34.97266 129.14532 38165 ft 403 kts 313°
2026-05-09 13:29 35.01647 129.10276 38163 ft 403 kts 314°
2026-05-09 13:30 35.06027 129.06014 38166 ft 403 kts 314°
2026-05-09 13:30 35.10408 129.01748 38165 ft 403 kts 314°
2026-05-09 13:31 35.15222 128.98078 38170 ft 415 kts 325°
2026-05-09 13:31 35.20449 128.95043 38169 ft 416 kts 326°
2026-05-09 13:32 35.25644 128.92018 38167 ft 416 kts 326°
2026-05-09 13:32 35.33485 128.87390 38168 ft 417 kts 326°
2026-05-09 13:33 35.38717 128.84286 38158 ft 418 kts 326°
2026-05-09 13:33 35.43954 128.81175 38163 ft 418 kts 326°
2026-05-09 13:34 35.49149 128.78088 38171 ft 417 kts 326°
2026-05-09 13:34 35.54368 128.74986 38155 ft 415 kts 326°
2026-05-09 13:35 35.59556 128.71903 38142 ft 413 kts 326°
2026-05-09 13:35 35.64722 128.68828 38158 ft 412 kts 326°
2026-05-09 13:36 35.69888 128.65744 38144 ft 413 kts 326°
2026-05-09 13:36 35.75022 128.62678 38139 ft 413 kts 326°
2026-05-09 13:37 35.80123 128.59490 38126 ft 405 kts 320°
2026-05-09 13:37 35.82364 128.57534 38077 ft 384 kts 313°
2026-05-09 13:37 35.84284 128.55328 37747 ft 374 kts 309°
2026-05-09 13:38 35.86154 128.53079 36891 ft 380 kts 309°
2026-05-09 13:38 35.88065 128.50768 35916 ft 390 kts 310°
2026-05-09 13:38 35.90028 128.48399 34977 ft 399 kts 310°
2026-05-09 13:38 35.92005 128.46026 34107 ft 405 kts 311°
2026-05-09 13:39 35.94042 128.43591 33184 ft 410 kts 311°
2026-05-09 13:39 35.96100 128.41136 32268 ft 413 kts 311°
2026-05-09 13:39 35.98171 128.38668 31592 ft 412 kts 312°
2026-05-09 13:39 36.00226 128.36220 30990 ft 409 kts 312°
2026-05-09 13:40 36.02262 128.33793 30463 ft 404 kts 312°
2026-05-09 13:40 36.04274 128.31390 29892 ft 400 kts 312°
2026-05-09 13:40 36.06263 128.29013 29311 ft 395 kts 312°
2026-05-09 13:40 36.08197 128.26698 28804 ft 390 kts 312°
2026-05-09 13:41 36.10135 128.24375 28252 ft 386 kts 312°
2026-05-09 13:41 36.12049 128.22080 27746 ft 381 kts 312°
2026-05-09 13:41 36.13942 128.19807 27218 ft 378 kts 313°
2026-05-09 13:41 36.15819 128.17552 26717 ft 374 kts 313°
2026-05-09 13:42 36.17681 128.15314 26216 ft 372 kts 313°
2026-05-09 13:42 36.19528 128.13091 25720 ft 370 kts 313°
2026-05-09 13:42 36.21369 128.10875 25227 ft 368 kts 313°
2026-05-09 13:42 36.23203 128.08667 24737 ft 368 kts 313°
2026-05-09 13:43 36.25031 128.06464 24247 ft 377 kts 314°
2026-05-09 13:43 36.27145 128.04454 23716 ft 389 kts 327°
2026-05-09 13:43 36.29594 128.03028 23028 ft 392 kts 338°
2026-05-09 13:43 36.32260 128.02266 22434 ft 394 kts 349°
2026-05-09 13:44 36.34968 128.01890 21895 ft 390 kts 351°
2026-05-09 13:44 36.37659 128.01566 21375 ft 386 kts 351°
2026-05-09 13:44 36.40316 128.01244 20873 ft 382 kts 351°
2026-05-09 13:44 36.42943 128.00910 20380 ft 377 kts 350°
2026-05-09 13:45 36.45535 128.00564 19914 ft 372 kts 350°
2026-05-09 13:45 36.48095 128.00213 19442 ft 368 kts 350°
2026-05-09 13:45 36.50598 127.99866 18982 ft 365 kts 350°
2026-05-09 13:45 36.53112 127.99517 18526 ft 362 kts 350°
2026-05-09 13:46 36.55599 127.99172 18217 ft 360 kts 350°
2026-05-09 13:46 36.58068 127.98833 18153 ft 352 kts 350°
2026-05-09 13:46 36.60455 127.98517 18120 ft 337 kts 350°
2026-05-09 13:46 36.62732 127.98217 18115 ft 321 kts 350°
2026-05-09 13:47 36.64898 127.97931 18112 ft 305 kts 349°
2026-05-09 13:47 36.66955 127.97657 18137 ft 290 kts 349°
2026-05-09 13:47 36.68918 127.97395 18121 ft 277 kts 349°
2026-05-09 13:47 36.70764 127.97147 18115 ft 264 kts 349°
2026-05-09 13:48 36.72550 127.96906 18113 ft 252 kts 348°
2026-05-09 13:48 36.74274 127.96671 18122 ft 250 kts 348°
2026-05-09 13:48 36.76079 127.96420 18171 ft 274 kts 349°
2026-05-09 13:48 36.78064 127.96144 18171 ft 300 kts 349°
2026-05-09 13:49 36.80230 127.95847 18159 ft 325 kts 349°
2026-05-09 13:49 36.82538 127.95421 18133 ft 343 kts 340°
2026-05-09 13:49 36.84638 127.94149 18135 ft 331 kts 322°
2026-05-09 13:49 36.86227 127.92212 18131 ft 319 kts 306°
2026-05-09 13:50 36.87498 127.89960 18140 ft 318 kts 303°
2026-05-09 13:50 36.88745 127.87651 18146 ft 323 kts 303°
2026-05-09 13:50 36.90017 127.85317 18139 ft 326 kts 304°
2026-05-09 13:50 36.91304 127.82996 18133 ft 324 kts 304°
2026-05-09 13:51 36.92593 127.80687 18134 ft 324 kts 304°
2026-05-09 13:51 36.93885 127.78385 18128 ft 323 kts 304°
2026-05-09 13:51 36.95179 127.76094 18133 ft 323 kts 304°
2026-05-09 13:51 36.96474 127.73804 18135 ft 323 kts 304°
2026-05-09 13:52 36.97753 127.71540 18133 ft 323 kts 304°
2026-05-09 13:52 36.99048 127.69244 18139 ft 323 kts 304°
2026-05-09 13:52 37.00346 127.66942 18135 ft 324 kts 304°
2026-05-09 13:52 37.01645 127.64634 18131 ft 325 kts 304°
2026-05-09 13:53 37.02913 127.62293 18112 ft 326 kts 302°
2026-05-09 13:53 37.04130 127.59871 17683 ft 329 kts 301°
2026-05-09 13:53 37.05324 127.57443 17295 ft 327 kts 301°
2026-05-09 13:53 37.06514 127.55004 16889 ft 332 kts 301°
2026-05-09 13:54 37.07726 127.52504 16543 ft 339 kts 301°
2026-05-09 13:54 37.08945 127.49960 16204 ft 342 kts 298°
2026-05-09 13:54 37.09739 127.47213 15866 ft 340 kts 284°
2026-05-09 13:54 37.10201 127.44332 15537 ft 336 kts 282°
2026-05-09 13:55 37.10599 127.41449 15217 ft 337 kts 281°
2026-05-09 13:55 37.10983 127.38552 14887 ft 337 kts 281°
2026-05-09 13:55 37.11359 127.35660 14540 ft 335 kts 281°
2026-05-09 13:55 37.11726 127.32786 14225 ft 333 kts 281°
2026-05-09 13:56 37.12086 127.29923 13892 ft 332 kts 281°
2026-05-09 13:56 37.12441 127.27067 13519 ft 331 kts 281°
2026-05-09 13:56 37.12793 127.24223 13210 ft 328 kts 281°
2026-05-09 13:56 37.13244 127.21477 13162 ft 315 kts 285°
2026-05-09 13:57 37.13765 127.18911 13036 ft 303 kts 287°
2026-05-09 13:57 37.14301 127.16376 12667 ft 300 kts 287°
2026-05-09 13:57 37.14832 127.13849 12222 ft 300 kts 286°
2026-05-09 13:57 37.15354 127.11324 11818 ft 298 kts 286°
2026-05-09 13:58 37.15865 127.08811 11435 ft 297 kts 285°
2026-05-09 13:58 37.16367 127.06313 11055 ft 295 kts 285°
2026-05-09 13:58 37.16863 127.03825 10670 ft 293 kts 285°
2026-05-09 13:58 37.17355 127.01346 10302 ft 292 kts 285°
2026-05-09 13:59 37.17842 126.98880 9913 ft 291 kts 285°
2026-05-09 13:59 37.18326 126.96422 9478 ft 290 kts 284°
2026-05-09 13:59 37.18802 126.93997 9032 ft 291 kts 284°
2026-05-09 13:59 37.19273 126.91598 8866 ft 274 kts 284°
2026-05-09 14:00 37.19714 126.89341 8625 ft 261 kts 284°
2026-05-09 14:00 37.19860 126.88596 8470 ft 260 kts 284°
2026-05-09 14:00 37.20581 126.84910 7578 ft 262 kts 283°
2026-05-09 14:00 37.21009 126.82699 7254 ft 262 kts 282°
2026-05-09 14:01 37.21442 126.80461 6975 ft 266 kts 282°
2026-05-09 14:01 37.21884 126.78194 6669 ft 268 kts 282°
2026-05-09 14:01 37.22325 126.75932 6360 ft 267 kts 282°
2026-05-09 14:01 37.22764 126.73674 6046 ft 266 kts 282°
2026-05-09 14:02 37.23202 126.71424 5749 ft 265 kts 282°
2026-05-09 14:02 37.23631 126.69220 5457 ft 264 kts 282°
2026-05-09 14:02 37.24073 126.66955 5176 ft 263 kts 284°
2026-05-09 14:02 37.24914 126.64960 5018 ft 267 kts 310°
2026-05-09 14:03 37.26374 126.63443 4639 ft 283 kts 326°
2026-05-09 14:03 37.28040 126.62115 4257 ft 284 kts 326°
2026-05-09 14:03 37.29680 126.60735 3870 ft 284 kts 324°
2026-05-09 14:03 37.31279 126.59313 3491 ft 278 kts 323°
2026-05-09 14:04 37.32827 126.57921 3123 ft 269 kts 323°
2026-05-09 14:04 37.34322 126.56582 2791 ft 256 kts 324°
2026-05-09 14:04 37.35703 126.55349 2451 ft 231 kts 324°
2026-05-09 14:04 37.36954 126.54232 2152 ft 210 kts 323°
2026-05-09 14:05 37.38083 126.53224 1891 ft 195 kts 323°
2026-05-09 14:05 37.39148 126.52272 1626 ft 182 kts 323°
2026-05-09 14:05 37.40144 126.51382 1411 ft 170 kts 323°
2026-05-09 14:05 37.41111 126.50518 1163 ft 168 kts 323°
2026-05-09 14:06 37.42023 126.49703 967 ft 152 kts 323°
2026-05-09 14:06 37.42877 126.48941 735 ft 148 kts 324°
2026-05-09 14:06 37.43706 126.48200 532 ft 145 kts 325°
2026-05-09 14:06 37.44531 126.47464 341 ft 145 kts 326°
2026-05-09 14:07 37.45355 126.46728 154 ft 145 kts 326°
2026-05-09 14:07 37.46167 126.45996 34 ft 135 kts 326°
2026-05-09 14:07 37.46835 126.45403 31 ft 97 kts 325°
2026-05-09 14:07 37.47191 126.45032 32 ft 50 kts 305°
2026-05-09 14:08 37.47294 126.44775 32 ft 20 kts 296°
2026-05-09 14:08 37.47373 126.44648 31 ft 16 kts 295°
2026-05-09 14:08 37.47359 126.44577 31 ft 0 kts 237°
2026-05-09 14:09 37.47345 126.44551 32 ft 15 kts 235°
2026-05-09 14:09 37.47251 126.44387 32 ft 25 kts 234°
2026-05-09 14:10 37.47068 126.44064 32 ft 15 kts 234°
2026-05-09 14:10 37.47037 126.44009 32 ft 5 kts 240°
2026-05-09 14:10 37.47041 126.43948 30 ft 12 kts 298°
2026-05-09 14:11 37.47140 126.43851 29 ft 21 kts 326°
2026-05-09 14:11 37.47199 126.43806 30 ft 10 kts 347°
2026-05-09 14:11 37.47243 126.43856 32 ft 10 kts 54°
2026-05-09 14:11 37.47253 126.43874 32 ft 0 kts 54°
2026-05-09 14:12 37.47254 126.43876 32 ft 0 kts 54°